Weather History for Krabi, Thailand

Change the Weather History Date:

Wednesday, January 29, 2014

  Actual Average (VTSP) Record (VTSP)
Temperature  
Mean Temperature 80 °F -  
Max Temperature 91 °F 90 °F 96 °F (1997)
Min Temperature 68 °F 75 °F 69 °F (2000)
Cooling Degree Days 14    
Growing Degree Days 30 (Base 50)    
Moisture  
Dew Point 66 °F    
Average Humidity 69    
Maximum Humidity 94    
Minimum Humidity 38    
Precipitation  
Precipitation 0.00 in - - ()
Sea Level Pressure  
Sea Level Pressure 29.89 in    
Wind  
Wind Speed 9 mph ()    
Max Wind Speed 127 mph    
Max Gust Speed -    
Visibility 5.6 miles    
Events      
Averages and records for this station are not official NWS values.
T = Trace of Precipitation, MM = Missing Value Source: Averaged Metar Reports

Daily Weather History Graph

Daily Weather History Graph

Search for Another Location

Airport:

Trip Planner

Search our weather history database for the weather conditions in past years. The results will help you decide how hot, cold, wet, or windy it might be!

Date:

Astronomy

Jan. 29, 2014 Rise Set
Actual Time 6:44 AM ICT 6:30 PM ICT
Civil Twilight 6:22 AM ICT 6:52 PM ICT
Nautical Twilight 5:56 AM ICT 7:17 PM ICT
Astronomical Twilight 5:31 AM ICT 7:42 PM ICT
Moon 4:48 AM ICT (1/29) 4:55 PM ICT (1/29)
Length of Visible Light 12h 29m
Length of Day
11h 46m
Waning Crescent, 4% of the Moon is Illuminated
Jan 29
Waning Crescent
Jan 31
New
Feb 7
First Quarter
Feb 15
Full
Feb 23
Last Quarter

Hourly Weather History & Observations

Time (ICT) Temp. Heat Index Dew Point Humidity Pressure Visibility Wind Dir Wind Speed Gust Speed Precip Events Conditions
1:00 AM 69.8 °F - 66.2 °F 88% 29.92 in 5.6 mi North 4.6 mph - N/A   Unknown
2:00 AM 69.8 °F - 66.2 °F 88% 29.89 in 5.0 mi NNE 4.6 mph - N/A   Mist
3:00 AM 69.8 °F - 66.2 °F 88% 29.89 in 5.0 mi North 4.6 mph - N/A   Unknown
4:00 AM 69.8 °F - 66.2 °F 88% 29.86 in 5.6 mi NNE 4.6 mph - N/A   Unknown
5:00 AM 69.8 °F - 66.2 °F 88% 29.89 in 5.0 mi NE 3.5 mph - N/A   Unknown
6:00 AM 68.0 °F - 66.2 °F 94% 29.89 in 4.3 mi NNE 4.6 mph - N/A   Unknown
7:00 AM 68.0 °F - 66.2 °F 94% 29.92 in 3.7 mi NNE 4.6 mph - N/A   Unknown
8:00 AM 71.6 °F - 68.0 °F 88% 29.92 in - NNE 4.6 mph - N/A   Clear
9:00 AM 77.0 °F - 68.0 °F 74% 29.95 in - NE 8.1 mph - N/A   Clear
10:00 AM 84.2 °F 88.4 °F 69.8 °F 62% 29.95 in 6.2 mi East 8.1 mph - N/A   Scattered Clouds
12:00 PM 89.6 °F 91.1 °F 64.4 °F 43% 29.92 in 6.2 mi East 9.2 mph - N/A   Scattered Clouds
1:00 PM 91.4 °F 92.1 °F 62.6 °F 38% 29.89 in 6.2 mi East 10.4 mph - N/A   Scattered Clouds
2:00 PM 91.4 °F 93.2 °F 64.4 °F 41% 29.86 in 6.2 mi East 11.5 mph - N/A   Scattered Clouds
3:00 PM 89.6 °F 90.1 °F 62.6 °F 40% 29.83 in 6.2 mi East 11.5 mph - N/A   Scattered Clouds
4:00 PM 91.4 °F 93.2 °F 64.4 °F 41% 29.80 in 6.2 mi East 126.6 mph - N/A   Scattered Clouds
5:00 PM 87.8 °F 89.4 °F 64.4 °F 46% 29.83 in 6.2 mi East 12.7 mph - N/A   Partly Cloudy
6:00 PM 84.2 °F 85.6 °F 64.4 °F 51% 29.83 in - East 9.2 mph - N/A   Clear
7:00 PM 80.6 °F 82.3 °F 64.4 °F 58% 29.86 in 5.6 mi East 8.1 mph - N/A   Unknown
8:00 PM 77.0 °F - 62.6 °F 61% 29.89 in 5.6 mi East 5.8 mph - N/A   Unknown
9:00 PM 75.2 °F - 66.2 °F 73% 29.92 in 5.6 mi East 5.8 mph - N/A   Unknown
10:00 PM 73.4 °F - 68.0 °F 83% 29.95 in 5.6 mi East 5.8 mph - N/A   Unknown
11:00 PM 71.6 °F - 66.2 °F 83% 29.95 in 5.6 mi East 3.5 mph - N/A   Unknown